Weather History for Point Mugu, CA

Change the Weather History Date:

Tuesday, March 11, 2014

  Actual Average Record
Temperature  
Mean Temperature 59 °F -  
Max Temperature 70 °F 61 °F 89 °F (2007)
Min Temperature 50 °F 44 °F 41 °F (2006)
Degree Days  
Heating Degree Days 6    
Growing Degree Days 9 (Base 50)    
Moisture  
Dew Point 52 °F    
Average Humidity 73    
Maximum Humidity 87    
Minimum Humidity 37    
Precipitation  
Precipitation 0.00 in - - ()
Sea Level Pressure  
Sea Level Pressure 29.96 in    
Wind  
Wind Speed 4 mph (North)    
Max Wind Speed 17 mph    
Max Gust Speed 24 mph    
Visibility 7 miles    
Events Rain    
Averages and records for this station are not official NWS values.
T = Trace of Precipitation, MM = Missing Value Source: NWS Daily Summary

Daily Weather History Graph

Daily Weather History Graph

Search for Another Location

Airport:

Trip Planner

Search our weather history database for the weather conditions in past years. The results will help you decide how hot, cold, wet, or windy it might be!

Date:

Astronomy

Mar. 11, 2014 Rise Set
Actual Time 7:12 AM PDT 7:01 PM PDT
Civil Twilight 6:47 AM PDT 7:26 PM PDT
Nautical Twilight 6:18 AM PDT 7:55 PM PDT
Astronomical Twilight 5:49 AM PDT 8:24 PM PDT
Moon 2:51 PM PDT (3/11) 3:59 AM PDT (3/11)
Length of Visible Light 12h 38m
Length of Day
11h 48m
Waxing Gibbous, 79% of the Moon is Illuminated
Mar 11
Waxing Gibbous
Mar 16
Full
Mar 23
Last Quarter
Mar 30
New
Apr 7
First Quarter

Hourly Weather History & Observations

Time (PDT) Temp. Dew Point Humidity Pressure Visibility Wind Dir Wind Speed Gust Speed Precip Events Conditions
12:54 AM 57.9 °F 54.0 °F 87% 29.98 in - Calm Calm - N/A   Clear
1:54 AM 55.0 °F 51.1 °F 86% 29.98 in - NNE 5.8 mph - N/A   Clear
2:54 AM 54.0 °F 50.0 °F 86% 29.97 in - Calm Calm - N/A   Clear
3:54 AM 53.1 °F 48.9 °F 86% 29.96 in - North 3.5 mph - N/A   Clear
4:54 AM 51.1 °F 46.0 °F 83% 29.95 in - North 3.5 mph - N/A   Clear
5:54 AM 50.0 °F 44.1 °F 80% 29.96 in 7.0 mi NNE 3.5 mph - N/A   Scattered Clouds
6:54 AM 50.0 °F 44.1 °F 80% 29.97 in 7.0 mi North 4.6 mph - N/A   Scattered Clouds
7:54 AM 50.0 °F 44.1 °F 80% 29.98 in 7.0 mi NNE 3.5 mph - N/A   Mostly Cloudy
8:54 AM 57.9 °F 48.0 °F 70% 29.99 in 7.0 mi NNE 3.5 mph - N/A   Mostly Cloudy
9:54 AM 64.9 °F 51.1 °F 61% 29.99 in 7.0 mi Calm Calm - N/A   Mostly Cloudy
10:54 AM 66.0 °F 55.9 °F 70% 29.99 in 7.0 mi South 11.5 mph - N/A   Mostly Cloudy
11:54 AM 66.9 °F 57.0 °F 70% 29.99 in 7.0 mi South 12.7 mph - N/A   Mostly Cloudy
12:54 PM 68.0 °F 57.9 °F 70% 29.98 in 7.0 mi SSW 11.5 mph - N/A   Mostly Cloudy
1:54 PM 66.9 °F 57.9 °F 73% 29.96 in 7.0 mi SW 9.2 mph - N/A   Mostly Cloudy
2:54 PM 68.0 °F 57.9 °F 70% 29.94 in 7.0 mi WSW 8.1 mph - N/A   Mostly Cloudy
3:54 PM 66.9 °F 55.9 °F 68% 29.93 in 7.0 mi WSW 4.6 mph - N/A   Mostly Cloudy
4:54 PM 66.9 °F 54.0 °F 63% 29.92 in 7.0 mi Variable 3.5 mph - N/A   Mostly Cloudy
5:54 PM 68.0 °F 53.1 °F 59% 29.92 in 7.0 mi WSW 8.1 mph - N/A   Mostly Cloudy
6:54 PM 64.0 °F 53.1 °F 67% 29.93 in 7.0 mi Calm Calm - N/A   Mostly Cloudy
7:54 PM 61.0 °F 55.0 °F 81% 29.94 in 7.0 mi Calm Calm - N/A   Mostly Cloudy
8:54 PM 61.0 °F 53.1 °F 75% 29.94 in 7.0 mi North 4.6 mph - N/A   Mostly Cloudy
9:54 PM 59.0 °F 53.1 °F 81% 29.95 in 7.0 mi North 5.8 mph - N/A   Mostly Cloudy
10:54 PM 64.9 °F 37.9 °F 37% 29.94 in 7.0 mi NE 8.1 mph - N/A   Partly Cloudy
11:54 PM 63.0 °F 55.9 °F 78% 29.97 in - SSE 17.3 mph 24.2 mph 0.00 in Rain Light Rain